Regional Weather Roundup
Issued by NWS

Home | Current Version | Previous Version | Text Only | Print | Product List | Glossary Off
Versions: 1 2 3 4 5 6 7 8 9 10 11 12 13 14 15 16 17 18 19 20 21 22 23 24 25 26 27 28 29 30 31 32 33 34 35 36 37 38 39 40 41 42 43 44 45 46 47 48 49 50

000
ASUS43 KOAX 292010
RWRNE

WEATHER ROUNDUP FOR NEBRASKA
NATIONAL WEATHER SERVICE OMAHA NE
300 PM CDT THU SEP 29 2016

NOTES: SATELLITE DATA IS BEING USED TO AUGMENT CLOUD COVER ABOVE
       12000 FEET.
       "FAIR" INDICATES FEW OR NO CLOUDS BELOW 12,000 FEET WITH NO
       SIGNIFICANT WEATHER AND/OR OBSTRUCTIONS TO VISIBILITY.

  * THESE STATIONS DO NOT REPORT WEATHER SUCH AS RAIN...SNOW OR FOG.

NEZ001>004-019>022-054>056-292100-
NEBRASKA PANHANDLE

CITY           SKY/WX    TMP DP  RH WIND       PRES   REMARKS
SCOTTSBLUFF    SUNNY     80  45  28 S18G28    30.25F
ALLIANCE       SUNNY     76  42  29 S22G30    30.29F
CHADRON        SUNNY     81  42  25 S25G32    30.21F
KIMBALL        SUNNY     77  44  30 S20G28    30.30F
SIDNEY         SUNNY     78  43  28 SE25G35   30.30F
$$

NEZ057>060-069>072-079>082-292100-
SOUTHWEST NEBRASKA

CITY           SKY/WX    TMP DP  RH WIND       PRES   REMARKS
NORTH PLATTE   SUNNY     74  41  30 SE8G17    30.34F
IMPERIAL       SUNNY     74  40  29 SE16G25   30.33F
LEXINGTON      SUNNY     69  41  36 SE6       30.36F
MCCOOK         SUNNY     73  43  33 SE12      30.35F
OGALLALA       SUNNY     76  40  27 SE15      30.32F
$$

NEZ005>010-023>029-035>040-094-292100-
NORTH CENTRAL NEBRASKA

CITY           SKY/WX    TMP DP  RH WIND       PRES   REMARKS
VALENTINE      SUNNY     73  40  30 S9G21     30.32F
AINSWORTH      SUNNY     70  41  34 S12       30.35F
BROKEN BOW     SUNNY     68  42  38 S8        30.36F
O`NEILL        SUNNY     68  42  39 S6        30.39F
ORD            SUNNY     68  41  37 E8        30.36F
THEDFORD       SUNNY     74  43  33 SE10G17   30.35F
$$

NEZ041-046>049-061>064-073>077-083>087-292100-
SOUTH CENTRAL NEBRASKA

CITY           SKY/WX    TMP DP  RH WIND       PRES   REMARKS
GRAND ISLAND   SUNNY     66  44  45 CALM      30.39F
AURORA         SUNNY     66  46  48 NE6       30.38F
HASTINGS       SUNNY     67  45  45 E7        30.39F
HEBRON         MOSUNNY   67  45  44 CALM      30.37F
HOLDREGE       SUNNY     68  38  33 SE6       30.37F
KEARNEY *      SUNNY     70  43  37 E7        30.37F
YORK           SUNNY     66  48  52 NE6       30.38F
$$

NEZ011>018-030>034-042>045-292100-
NORTHEAST NEBRASKA

CITY           SKY/WX    TMP DP  RH WIND       PRES   REMARKS
NORFOLK        SUNNY     68  46  45 VRB6      30.38F
ALBION         SUNNY     67  43  41 CALM      30.38F
BLAIR          MOSUNNY   67  51  54 N3        30.37F
FREMONT        MOSUNNY   69  47  45 E6        30.39F
TEKAMAH        MOSUNNY   69  47  45 CALM      30.38F
WAYNE          MOSUNNY   68  49  51 S7        30.39F
$$

NEZ050>053-065>068-078-088>093-292100-
SOUTHEAST NEBRASKA

CITY           SKY/WX    TMP DP  RH WIND       PRES   REMARKS
LINCOLN        MOSUNNY   69  47  45 E3        30.39F
OMAHA EPPLEY   MOSUNNY   71  48  43 NE7       30.37F
BEATRICE       SUNNY     69  49  47 NE6       30.37F
FALLS CITY     SUNNY     71  49  45 NE9       30.34F
NEBRASKA CITY  MOSUNNY   69  42  38 N10       30.37F
PLATTSMOUTH    MOSUNNY   69  44  40 N5        30.37F
$$

NEZ044-045-051>053-067-292100-
OMAHA AREA

CITY           SKY/WX    TMP DP  RH WIND       PRES   REMARKS
OMAHA EPPLEY   MOSUNNY   71  48  43 NE7       30.37F
BLAIR          MOSUNNY   67  51  54 N3        30.37F
FREMONT        MOSUNNY   69  47  45 E6        30.39F
MILLARD        SUNNY     69  50  51 NE5       30.37F
OFFUTT AFB     MOSUNNY   69  51  53 N9        30.36F
PLATTSMOUTH    MOSUNNY   69  44  40 N5        30.37F
WAHOO          MOCLDY    69  46  44 N6        30.38F
$$




USA.gov is the U.S. government's official web portal to all federal, state and local government web resources and services.